This demonstration page uses our WeatherBlox Daily Observations layout. Learn more.

Left ArrowRight Arrow

Hourly Observations for February 20, 2019

Temp ( °F °C ) Dew Point ( °F °C ) Humidity (%) Winds ( mph kmh ) Pressure ( in mb ) Visibility ( mi km ) Precip ( " mm )
6:30 am 06:30 Cloudy with Light Rain 32 0 30 -1 93 93 E 9 15 30.01 1016 10 16 N/A
6:50 am 06:50 Cloudy with Light Rain 32 0 30 -1 93 93 ESE 15 24 29.98 1015 10 16 N/A
7:45 am 07:45 Cloudy with Light Rain 34 1 30 -1 87 87 ESE 9 15 29.98 1015 10 16 N/A
8:45 am 08:45 Cloudy with Light Rain 34 1 30 -1 87 87 ESE 8 13 29.98 1015 10 16 N/A
9:15 am 09:15 Cloudy with Light Rain 34 1 32 0 93 93 ESE 7 11 29.99 1016 2 3 N/A
9:28 am 09:28 Cloudy with Light Rain 34 1 32 0 93 93 ESE 8 13 29.98 1015 1 2 N/A
9:45 am 09:45 Cloudy with Light Rain 36 2 32 0 87 87 ESE 9 15 29.96 1015 2 3 N/A
10:28 am 10:28 Cloudy with Light Rain 36 2 32 0 87 87 SE 6 9 29.95 1014 2 2 N/A
10:45 am 10:45 Cloudy with Light Rain 36 2 32 0 87 87 SE 7 11 29.93 1014 2 2 N/A
11:45 am 11:45 Cloudy with Light Rain 37 3 36 2 93 93 SE 6 9 29.92 1013 2 3 N/A
12:45 pm 12:45 Cloudy with Light Rain 39 4 37 3 93 93 SSE 7 11 29.87 1012 2 3 N/A
1:45 pm 13:45 Cloudy with Light Rain 41 5 39 4 93 93 SSE 7 11 29.81 1010 2 3 N/A
2:45 pm 14:45 Cloudy with Light Rain 43 6 41 5 93 93 SSE 6 9 29.79 1009 4 6 N/A
3:45 pm 15:45 Cloudy with Light Rain 43 6 41 5 93 93 S 7 11 29.79 1009 5 8 N/A
4:45 pm 16:45 Cloudy with Light Rain 45 7 41 5 87 87 S 7 11 29.79 1009 5 8 N/A
5:45 pm 17:45 Cloudy with Light Rain 45 7 41 5 87 87 SSW 9 15 29.82 1010 3 5 N/A
6:45 pm 18:45 Cloudy with Light Rain 43 6 41 5 93 93 SSW 6 9 29.86 1011 7 11 N/A
7:45 pm 19:45 Cloudy 45 7 39 4 81 81 W 14 22 29.90 1012 10 16 N/A
8:45 pm 20:45 Cloudy 43 6 37 3 81 81 W 14 22 29.93 1014 10 16 N/A
9:45 pm 21:45 Cloudy 41 5 36 2 81 81 W 16 26 29.96 1015 10 16 N/A

Powered by AerisWeather